Location: G�ppingen
(48.7089°N, 9.6563°E)
Time: 23:42:11
(UTC+02:00)

LilacSat-2 - Pass Details

Date: 19 March 2019
Orbit: 513 x 536 km, 97.5° (Epoch: 25 April)

Event Time Altitude Azimuth Distance (km) Brightness Sun altitude
Rises 05:16:16 0° 29° (NNE) 2,652 ? -12.5°
Reaches altitude 10° 05:19:06 10° 53° (NE) 1,753 ? -12.0°
Maximum altitude 05:21:24 15° 90° (E) 1,434 ? -11.6°
Drops below altitude 10° 05:23:42 10° 128° (SE) 1,739 ? -11.3°
Sets 05:26:29 0° 152° (SSE) 2,617 ? -10.8°
